Updated 18-Jan-2024. Data version 1.1, RHmax=100,Scatmax=2500 
Year,Month,Day,Hour,Temp_degC,Pressure,%RH,Back_Scat_Red,Back_Scat_Green,Back_Scat_Blue,Total_Scat_Red,Total_Scat_Green,Total_Scat_Blue
2021, 09, 03, 15,   23.4,  99.82,     62,    6.7,    7.8,    8.0,  48.1,  61.4,   76.5
2021, 09, 03, 16,   22.3, 100.48,     64,    4.0,    3.2,    3.4,  25.8,  29.6,   37.8
2021, 09, 03, 17,   20.5, 100.55,     70,    4.4,    3.9,    4.3,  22.3,  24.5,   31.1
2021, 09, 03, 18,   20.2, 100.58,     70,    3.8,    2.8,    3.3,  18.6,  19.2,   24.7
2021, 09, 03, 19,   19.8, 100.61,     72,    3.8,    2.7,    3.4,  19.4,  19.8,   25.4
2021, 09, 03, 20,   19.0, 100.68,     77,    4.8,    3.9,    4.8,  24.6,  26.5,   34.4
2021, 09, 03, 21,   19.1, 100.67,     78,    5.3,    4.4,    5.5,  27.0,  29.9,   39.2
2021, 09, 03, 22,   19.3, 100.67,     79,    5.8,    4.8,    6.1,  28.4,  31.3,   40.9
2021, 09, 03, 23,   18.9, 100.60,     81,    6.5,    5.7,    7.3,  31.4,  34.9,   45.5
2021, 09, 04, 00,   18.7, 100.56,     83,    7.5,    7.0,    8.9,  35.4,  40.3,   52.3
2021, 09, 04, 01,   18.6, 100.60,     84,    7.5,    6.8,    9.1,  36.5,  41.5,   54.5
2021, 09, 04, 02,   18.7, 100.68,     83,    7.3,    6.5,    8.8,  37.8,  43.0,   56.3
2021, 09, 04, 03,   18.8, 100.69,     82,    7.0,    6.2,    8.4,  43.6,  49.6,   64.0
2021, 09, 04, 04,   19.0, 100.70,     79,    5.6,    4.7,    6.1,  33.2,  37.0,   47.4
2021, 09, 04, 05,   18.9, 100.73,     77,    4.7,    3.7,    4.8,  24.0,  25.9,   33.5
2021, 09, 04, 06,   18.8, 100.77,     77,    4.5,    3.5,    4.6,  21.4,  22.9,   29.8
2021, 09, 04, 07,   21.6, 100.85,     68,    4.1,    3.0,    3.8,  23.5,  24.0,   30.2
2021, 09, 04, 08,   25.1, 100.89,     56,    4.9,    3.6,    4.2,  32.0,  33.0,   39.8
2021, 09, 04, 09,   27.4, 100.92,     51,    4.6,    3.5,    4.2,  33.9,  38.6,   48.8
2021, 09, 04, 10,   28.7, 100.92,     48,    4.7,    3.7,    4.4,  39.0,  47.7,   61.2
2021, 09, 04, 11,   28.8, 100.94,     48,    3.5,    2.4,    2.8,  24.0,  28.9,   38.0
2021, 09, 04, 12,   31.4, 100.92,     41,    2.2,    1.1,    1.3,  12.1,  13.0,   16.9
2021, 09, 04, 13,   32.7, 100.91,     37,    2.0,    0.9,    1.0,  11.2,  12.1,   15.9
2021, 09, 04, 14,   32.5, 100.86,     37,    2.0,    0.9,    1.0,  10.7,  11.2,   14.5
2021, 09, 04, 15,   29.2, 100.89,     45,    2.5,    1.3,    1.5,  13.4,  14.1,   18.0
2021, 09, 04, 16,   28.0, 100.97,     47,    2.2,    1.0,    1.2,  11.8,  11.6,   14.6
2021, 09, 04, 17,   26.9, 101.03,     50,    2.4,    1.2,    1.4,  12.8,  13.0,   16.9
2021, 09, 04, 18,   23.6, 101.03,     58,    2.9,    1.6,    2.0,  15.9,  16.8,   22.0
2021, 09, 04, 19,   21.6, 101.12,     68,    3.8,    2.5,    3.1,  20.8,  22.2,   28.9
2021, 09, 04, 20,   20.2, 101.19,     74,    4.3,    3.0,    3.9,  23.2,  25.0,   32.2
2021, 09, 04, 21,   19.7, 101.29,     76,    4.7,    3.5,    4.6,  24.2,  25.9,   33.5
2021, 09, 04, 22,   19.3, 101.27,     74,    4.0,    2.9,    3.8,  20.3,  20.9,   26.9
2021, 09, 04, 23,   19.8, 101.24,     66,    2.9,    1.7,    2.3,  14.5,  14.2,   18.0
2021, 09, 05, 00,   19.9, 101.23,     64,    2.8,    1.6,    2.1,  14.3,  13.8,   17.5
2021, 09, 05, 01,   19.8, 101.23,     66,    3.1,    1.9,    2.4,  15.7,  15.5,   19.7
2021, 09, 05, 02,   19.7, 101.23,     68,    3.3,    2.2,    2.8,  18.0,  18.3,   23.3
2021, 09, 05, 03,   19.7, 101.22,     70,    4.0,    2.7,    3.5,  21.8,  22.8,   29.3
2021, 09, 05, 04,   19.7, 101.20,     71,    4.4,    3.2,    4.1,  26.7,  29.3,   38.0
2021, 09, 05, 05,   19.6, 101.26,     73,    5.1,    3.9,    5.0,  31.9,  36.1,   46.6
2021, 09, 05, 06,   19.6, 101.31,     74,    4.9,    3.8,    4.8,  29.5,  32.8,   42.3
2021, 09, 05, 07,   23.9, 101.33,     61,    3.7,    2.5,    3.1,  21.2,  22.6,   29.0
2021, 09, 05, 08,   24.8, 101.36,     58,    3.8,    2.5,    3.0,  22.6,  24.7,   32.0
2021, 09, 05, 09,   27.2, 101.37,     53,    3.6,    2.4,    2.9,  22.3,  24.8,   31.9
2021, 09, 05, 10,   30.2, 101.40,     45,    3.6,    2.4,    2.9,  22.5,  25.4,   32.9
2021, 09, 05, 11,   31.1, 101.36,     41,    3.3,    2.1,    2.3,  19.2,  21.3,   27.7
2021, 09, 05, 12,   28.6, 101.34,     46,    3.5,    2.2,    2.5,  20.9,  23.2,   30.1
2021, 09, 05, 13,   26.5, 101.31,     49,    3.6,    2.2,    2.5,  20.3,  21.8,   27.8
2021, 09, 05, 14,   27.0, 101.30,     51,    3.3,    2.0,    2.3,  18.6,  19.4,   24.6
2021, 09, 05, 15,   29.2, 101.30,     45,    3.2,    2.0,    2.2,  18.3,  19.2,   24.3
2021, 09, 05, 16,   26.9, 101.30,     52,    3.8,    2.4,    2.7,  22.3,  23.4,   29.5
2021, 09, 05, 17,   24.8, 101.33,     60,    4.7,    3.2,    3.7,  29.8,  32.6,   41.5
2021, 09, 05, 18,   22.6, 101.34,     67,    5.0,    3.4,    4.1,  32.8,  36.1,   46.0
2021, 09, 05, 19,   21.5, 101.38,     71,    5.1,    3.6,    4.5,  33.5,  36.7,   46.9
2021, 09, 05, 20,   21.0, 101.41,     74,    5.5,    4.2,    5.1,  35.6,  39.3,   49.8
2021, 09, 05, 21,   20.4, 101.43,     73,    5.3,    3.9,    4.9,  34.1,  37.0,   47.0
2021, 09, 05, 22,   20.5, 101.45,     71,    4.9,    3.5,    4.4,  32.5,  35.5,   45.1
2021, 09, 05, 23,   19.9, 101.45,     76,    5.6,    4.3,    5.5,  38.5,  42.2,   53.4
2021, 09, 06, 00,   19.5, 101.45,     81,    6.7,    5.7,    7.3,  47.3,  52.7,   66.6
2021, 09, 06, 01,   19.6, 101.44,     81,    7.0,    6.0,    7.8,  51.0,  56.2,   70.5
2021, 09, 06, 02,   19.6, 101.42,     83,    7.3,    6.4,    8.5,  51.6,  57.1,   71.4
2021, 09, 06, 03,   19.5, 101.38,     83,    7.6,    6.8,    9.0,  53.9,  59.8,   74.7
2021, 09, 06, 04,   19.5, 101.34,     83,    8.1,    7.3,    9.6,  65.7,  73.5,   91.0
2021, 09, 06, 05,   19.4, 101.36,     82,    7.2,    6.7,    8.9,  60.2,  69.0,   86.5
2021, 09, 06, 06,   19.8, 101.42,     82,    8.2,    7.6,   10.1,  74.6,  85.0,  104.9
2021, 09, 06, 07,   20.9, 101.42,     79,    6.3,    5.6,    7.4,  54.4,  61.7,   76.9
2021, 09, 06, 08,   23.1, 101.42,     73,    4.9,    3.9,    5.0,  39.0,  44.1,   55.5
2021, 09, 06, 09,   28.6, 101.43,     55,    3.8,    2.5,    3.0,  27.1,  29.5,   36.9
2021, 09, 06, 10,   29.6, 101.44,     48,    3.2,    1.9,    2.2,  22.4,  23.2,   28.6
2021, 09, 06, 11,   30.4, 101.40,     45,    3.0,    1.7,    1.9,  20.4,  20.9,   25.8
2021, 09, 06, 12,   30.6, 101.38,     44,    3.0,    1.8,    1.8,  21.6,  20.6,   24.0
2021, 09, 07, 00,   19.2, 101.08,     84,    8.9,    8.3,   10.8,  74.7, 141.0,  122.2
2021, 09, 07, 01,   19.4, 101.03,     85,    9.6,    9.0,   11.9,  74.8,  82.0,  100.5
2021, 09, 07, 02,   19.5, 100.97,     84,    9.5,    9.0,   11.7,  75.2,  82.8,  101.3
2021, 09, 07, 03,   19.4, 100.92,     84,    9.4,    9.0,   11.7,  72.8,  80.2,   98.4
2021, 09, 07, 04,   19.3, 100.88,     85,    9.7,    9.4,   12.4,  75.1,  86.6,  105.1
2021, 09, 07, 05,   19.2, 100.84,     86,   10.4,   10.3,   13.6,  73.6,  86.5,  105.1
2021, 09, 07, 06,   19.2, 100.81,     86,   10.4,   10.2,   13.5,  68.3,  77.8,   96.2
2021, 09, 07, 07,   19.5, 100.80,     86,   10.3,   10.1,   13.4,  68.7,  76.9,   94.8
2021, 09, 07, 08,   20.2, 100.75,     86,    8.8,    8.5,   11.5,  54.3,  61.0,   76.1
2021, 09, 07, 09,   21.5, 100.73,     82,    7.5,    7.0,    9.3,  53.6,  60.4,   75.0
2021, 09, 07, 10,   24.8, 100.68,     75,    5.9,    5.1,    6.7,  44.6,  50.4,   62.9
2021, 09, 07, 11,   27.4, 100.61,     67,    5.3,    4.2,    5.3,  41.8,  48.6,   59.7
2021, 09, 07, 12,   31.4, 100.53,     56,    4.6,    3.4,    4.0,  35.6,  42.0,   49.7
2021, 09, 07, 13,   34.7, 100.43,     47,    4.1,    3.0,    3.5,  33.7,  46.2,   52.0
2021, 09, 07, 14,   31.5, 100.34,     51,    4.2,    3.1,    3.5,  31.0,  37.6,   43.9
2021, 09, 07, 15,   28.3, 100.29,     62,    5.2,    4.0,    4.8,  35.3,  39.6,   48.6
2021, 09, 07, 16,   29.0, 100.23,     62,    5.4,    4.3,    5.1,  35.9,  40.4,   50.2
2021, 09, 07, 17,   27.5, 100.21,     68,    6.2,    5.2,    6.5,  39.6,  45.3,   56.7
2021, 09, 07, 18,   26.0, 100.18,     75,   10.5,   10.7,   13.6,  64.7,  83.9,  112.6
2021, 09, 07, 19,   25.0, 100.17,     80,    7.9,    7.3,    9.2,  55.3,  64.9,   81.4
2021, 09, 07, 20,   24.6, 100.19,     80,    9.0,    8.5,   10.7,  67.4,  80.0,  100.9
2021, 09, 07, 21,   24.4, 100.21,     77,    8.2,    7.5,    9.4,  67.6,  79.0,   98.3
2021, 09, 07, 22,   24.5, 100.22,     75,    7.6,    6.7,    8.4,  62.3,  72.6,   90.6
2021, 09, 07, 23,   24.2, 100.24,     75,    7.4,    6.5,    8.2,  61.1,  71.6,   89.9
2021, 09, 08, 00,   23.6, 100.22,     77,    8.1,    7.3,    9.1,  64.7,  75.7,   94.9
2021, 09, 08, 01,   22.8, 100.19,     80,    8.8,    8.2,   10.3,  68.4,  79.9,   99.9
2021, 09, 08, 02,   22.2, 100.18,     81,    9.2,    8.5,   11.1,  69.0,  80.4,  101.0
2021, 09, 08, 03,   21.8, 100.19,     83,    9.7,    9.1,   11.7,  71.1,  82.6,  103.6
2021, 09, 08, 04,   21.5, 100.23,     83,   10.1,    9.6,   12.3,  71.5,  82.5,  103.9
2021, 09, 08, 05,   21.0, 100.28,     83,    9.2,    8.6,   11.2,  62.2,  71.6,   90.2
2021, 09, 08, 06,   20.7, 100.35,     82,    8.3,    7.6,    9.9,  50.7,  57.7,   72.8
2021, 09, 08, 07,   21.4, 100.41,     79,    6.6,    5.9,    7.6,  38.9,  44.0,   55.8
2021, 09, 08, 08,   25.0, 100.45,     67,    4.1,    3.1,    4.0,  23.6,  25.9,   32.9
2021, 09, 08, 09,   28.5, 100.48,     54,    2.6,    1.6,    2.1,  16.6,  17.6,   22.1
2021, 09, 08, 10,   33.6, 100.50,     42,    1.8,    0.8,    1.0,  10.4,  10.6,   13.3
2021, 09, 08, 11,   35.9, 100.50,     36,    1.7,    0.8,    0.9,  10.3,  11.1,   14.2
2021, 09, 08, 12,   36.5, 100.47,     35,    1.7,    0.7,    0.8,   9.6,  10.5,   13.5
2021, 09, 09, 12,   39.6, 100.91,     29,    2.9,    3.3,    3.9,  16.8,  23.2,   30.6
2021, 09, 09, 13,   37.1, 100.87,     33,    5.0,    5.5,    6.6,  28.3,  37.9,   49.9
2021, 09, 09, 14,   37.6, 100.84,     32,    4.5,    5.0,    6.0,  26.8,  36.0,   47.4
2021, 09, 09, 15,   36.3, 100.83,     31,    3.6,    4.1,    5.0,  22.3,  29.9,   39.5
2021, 09, 09, 16,   32.9, 100.84,     40,    4.8,    5.3,    6.5,  31.4,  40.6,   53.0
2021, 09, 09, 17,   29.1, 100.87,     52,    5.9,    6.4,    7.9,  42.6,  53.2,   67.9
2021, 09, 09, 18,   26.2, 100.89,     61,    5.3,    5.6,    7.1,  40.3,  49.8,   64.0
2021, 09, 09, 19,   24.1, 100.90,     70,    6.1,    6.6,    8.4,  46.9,  57.6,   73.7
2021, 09, 09, 20,   22.6, 100.97,     76,    6.8,    7.3,    9.4,  52.6,  64.7,   82.8
2021, 09, 09, 21,   22.1, 100.95,     78,    7.4,    8.2,   10.5,  57.0,  70.0,   89.6
2021, 09, 09, 22,   21.8, 100.95,     79,    8.0,    8.7,   11.3,  61.1,  74.1,   94.7
2021, 09, 09, 23,   21.5, 100.96,     81,    8.8,    9.7,   12.6,  66.2,  80.1,  102.3
2021, 09, 10, 00,   20.6, 100.97,     83,   10.7,   11.7,   15.0,  79.8,  96.1,  121.9
2021, 09, 10, 01,   19.7, 100.93,     85,   12.4,   13.6,   17.5,  92.5, 111.0,  140.5
2021, 09, 10, 02,   19.1, 100.94,     86,   14.5,   16.0,   20.4, 111.2, 131.7,  164.8
2021, 09, 10, 03,   18.6, 100.97,     87,   14.8,   16.1,   20.7, 109.2, 129.7,  162.6
2021, 09, 10, 04,   18.4, 100.98,     86,   13.1,   14.3,   18.5,  94.0, 113.1,  143.0
2021, 09, 10, 05,   18.4, 100.96,     85,   12.4,   13.5,   17.5,  87.8, 105.7,  135.5
2021, 09, 10, 06,   18.4, 100.93,     84,   11.8,   12.9,   16.5,  81.8,  99.4,  127.4
2021, 09, 10, 07,   18.9, 100.95,     82,   10.7,   11.7,   15.0,  72.4,  89.0,  114.7
2021, 09, 10, 08,   20.3, 100.95,     78,    9.0,    9.7,   12.3,  60.4,  74.4,   96.6
2021, 09, 10, 09,   21.2, 101.01,     75,    8.7,    9.2,   11.8,  59.6,  73.7,   95.5
2021, 09, 10, 10,   22.1, 101.00,     74,    8.9,    9.5,   12.0,  63.9,  78.4,  100.9
2021, 09, 10, 11,   23.5, 100.99,     71,    8.5,    9.2,   11.4,  61.5,  76.0,   97.3
2021, 09, 10, 12,   29.5, 100.91,     54,    6.5,    7.0,    8.5,  45.5,  58.6,   75.9
2021, 09, 10, 13,   30.1, 100.89,     50,    5.3,    5.7,    6.8,  35.6,  48.2,   63.9
2021, 09, 10, 14,   32.1, 100.84,     43,    4.9,    5.4,    6.4,  32.9,  45.1,   60.3
2021, 09, 10, 15,   32.5, 100.83,     41,    4.8,    5.2,    6.0,  31.9,  43.8,   58.5
2021, 09, 10, 16,   31.4, 100.80,     45,    5.4,    5.8,    6.8,  37.5,  50.6,   66.8
2021, 09, 10, 17,   27.9, 100.79,     54,    6.7,    7.1,    8.4,  48.4,  63.5,   83.1
2021, 09, 10, 18,   24.6, 100.80,     61,    6.1,    6.4,    7.7,  45.0,  57.6,   74.7
2021, 09, 10, 19,   22.4, 100.82,     69,    6.7,    7.0,    8.5,  49.5,  63.0,   81.6
2021, 09, 10, 20,   21.0, 100.87,     75,    8.2,    8.6,   10.7,  61.9,  77.7,  100.3
2021, 09, 10, 21,   20.7, 100.89,     77,    8.6,    9.2,   11.3,  64.9,  81.7,  105.1
2021, 09, 10, 22,   20.6, 100.89,     78,    9.4,    9.9,   12.4,  73.1,  91.0,  117.0
2021, 09, 10, 23,   20.4, 100.91,     78,   10.8,   11.5,   14.5,  87.2, 106.8,  135.7
2021, 09, 11, 00,   19.7, 100.89,     80,   11.8,   12.7,   15.8,  97.1, 118.3,  149.9
2021, 09, 11, 01,   19.2, 100.91,     82,   14.0,   14.9,   18.7, 123.5, 147.4,  184.1
2021, 09, 11, 02,   18.7, 100.90,     83,   15.2,   16.4,   20.5, 138.7, 164.9,  205.7
2021, 09, 11, 03,   17.9, 100.89,     85,   17.2,   18.6,   23.2, 163.4, 192.7,  238.3
2021, 09, 11, 04,   17.4, 100.89,     86,   17.8,   19.1,   24.3, 167.2, 195.9,  242.4
2021, 09, 11, 05,   17.0, 100.90,     87,   18.6,   20.2,   25.5, 171.1, 200.4,  247.7
2021, 09, 11, 06,   17.0, 100.92,     87,   18.9,   20.2,   25.6, 171.4, 200.0,  247.0
2021, 09, 11, 07,   21.2, 100.91,     76,   13.1,   14.0,   17.6, 106.0, 128.6,  162.6
2021, 09, 11, 08,   29.4, 100.90,     53,    7.7,    8.1,    9.8,  57.3,  72.4,   92.7
2021, 09, 11, 09,   36.3, 100.87,     38,    3.7,    4.0,    4.6,  28.7,  38.4,   49.9
2021, 09, 11, 10,   39.2, 100.87,     32,    2.0,    2.1,    2.1,  16.7,  23.7,   30.9
2021, 09, 11, 11,   40.1, 100.85,     29,    1.7,    1.9,    1.8,  15.0,  21.5,   27.8
2021, 09, 11, 12,   42.9, 100.79,     24,    2.7,    2.8,    3.3,  17.1,  23.2,   30.6
2021, 09, 11, 13,   43.0, 100.73,     23,    2.9,    3.1,    3.7,  18.8,  25.6,   33.6
2021, 09, 11, 14,   39.3, 100.65,     30,    5.1,    5.4,    6.6,  32.1,  42.6,   56.3
2021, 09, 11, 15,   35.3, 100.62,     36,    5.8,    6.3,    7.8,  35.9,  47.3,   62.6
2021, 09, 11, 16,   33.4, 100.61,     41,    6.4,    6.9,    8.5,  39.8,  52.5,   69.5
2021, 09, 11, 17,   33.2, 100.63,     42,    6.8,    7.2,    9.0,  42.4,  55.8,   73.8
2021, 09, 11, 18,   28.6, 100.67,     53,    7.1,    7.5,    9.4,  47.1,  61.0,   80.5
2021, 09, 11, 19,   24.6, 100.71,     67,    8.8,    9.1,   11.7,  61.7,  78.8,  104.1
2021, 09, 11, 20,   21.8, 100.75,     77,   10.4,   11.0,   14.1,  77.2,  98.5,  129.4
2021, 09, 11, 21,   20.6, 100.77,     81,   12.0,   12.9,   16.6,  92.2, 116.6,  152.2
2021, 09, 11, 22,   19.8, 100.77,     83,   13.8,   15.0,   19.3, 107.7, 135.1,  175.6
2021, 09, 11, 23,   19.2, 100.76,     85,   15.9,   17.2,   22.2, 125.9, 157.0,  203.0
2021, 09, 12, 00,   18.7, 100.74,     86,   18.7,   20.2,   26.0, 150.2, 184.9,  237.8
2021, 09, 12, 01,   18.3, 100.69,     87,   20.3,   21.9,   28.0, 167.4, 204.0,  260.6
2021, 09, 12, 02,   17.7, 100.65,     88,   22.8,   24.5,   31.2, 185.9, 227.3,  289.1
2021, 09, 12, 03,   17.2, 100.64,     88,   21.6,   23.3,   29.7, 173.0, 211.9,  271.5
2021, 09, 12, 04,   16.8, 100.64,     89,   23.2,   25.0,   31.8, 188.4, 226.6,  286.8
2021, 09, 12, 05,   16.4, 100.68,     89,   23.6,   25.3,   32.2, 195.4, 234.5,  295.5
2021, 09, 12, 06,   16.1, 100.75,     89,   25.1,   26.9,   34.0, 201.8, 241.6,  304.6
2021, 09, 12, 07,   18.4, 100.80,     85,   27.2,   28.1,   34.4, 173.1, 207.9,  262.1
2021, 09, 12, 08,   24.2, 100.81,     66,   10.3,   11.0,   14.0,  72.7,  91.3,  118.4
2021, 09, 12, 09,   31.9, 100.79,     48,    7.0,    7.4,    9.3,  45.4,  58.8,   77.0
2021, 09, 12, 10,   37.2, 100.80,     37,    5.0,    5.4,    6.7,  33.2,  43.7,   57.4
2021, 09, 12, 11,   38.7, 100.75,     30,    4.2,    4.3,    5.3,  26.7,  35.1,   46.0
2021, 09, 12, 12,   38.5, 100.77,     30,    4.3,    4.7,    5.6,  28.8,  38.4,   50.2
2021, 09, 12, 13,   39.7, 100.75,     27,    3.9,    4.2,    5.0,  26.8,  35.6,   46.4
2021, 09, 12, 14,   36.9, 100.76,     26,    2.9,    3.0,    3.7,  21.4,  27.4,   35.0
2021, 09, 12, 15,   35.2, 100.76,     30,    3.0,    3.1,    3.7,  21.4,  27.0,   34.7
2021, 09, 12, 16,   32.1, 100.81,     40,    3.7,    3.7,    4.5,  26.8,  33.4,   42.8
2021, 09, 12, 17,   29.0, 100.87,     52,    4.4,    4.5,    5.4,  34.6,  42.2,   53.5
2021, 09, 12, 18,   26.4, 100.95,     59,    4.8,    4.9,    6.0,  38.6,  45.7,   57.2
2021, 09, 12, 19,   23.6, 101.02,     70,    5.8,    6.0,    7.5,  48.6,  57.6,   72.2
2021, 09, 12, 20,   21.8, 101.09,     77,    7.0,    7.3,    9.4,  59.7,  70.4,   88.8
2021, 09, 12, 21,   20.9, 101.17,     80,    8.2,    8.7,   11.1,  68.4,  80.8,  101.2
2021, 09, 12, 22,   20.3, 101.20,     82,    9.0,    9.6,   12.3,  74.6,  87.6,  109.7
2021, 09, 12, 23,   19.7, 101.21,     83,    9.8,   10.6,   13.7,  81.5,  95.0,  118.3
2021, 09, 13, 00,   19.3, 101.21,     83,   10.2,   10.9,   14.1,  84.5,  97.6,  121.0
2021, 09, 13, 01,   19.0, 101.20,     83,   10.1,   10.8,   14.0,  81.0,  93.2,  115.9
2021, 09, 13, 02,   19.2, 101.22,     83,    9.4,   10.0,   13.0,  74.0,  85.1,  105.5
2021, 09, 13, 03,   19.0, 101.26,     83,    9.4,   10.1,   13.1,  72.3,  82.5,  102.4
2021, 09, 13, 04,   19.0, 101.25,     84,    9.7,   10.4,   13.3,  72.5,  82.0,  101.0
2021, 09, 13, 05,   18.8, 101.27,     85,   10.2,   10.9,   14.1,  74.1,  83.1,  102.6
2021, 09, 13, 06,   18.6, 101.28,     86,   10.6,   11.3,   14.7,  72.5,  80.9,  100.0
2021, 09, 13, 07,   20.5, 101.35,     82,    8.7,    9.1,   11.7,  58.0,  64.6,   79.4
2021, 09, 13, 08,   24.9, 101.37,     67,    5.1,    5.3,    6.6,  36.1,  39.9,   49.1
2021, 09, 13, 09,   28.7, 101.41,     52,    3.7,    3.8,    4.6,  25.9,  28.6,   35.1
2021, 09, 13, 10,   29.9, 101.47,     47,    3.2,    3.3,    3.9,  22.0,  24.0,   29.2
2021, 09, 13, 11,   30.4, 101.47,     45,    2.9,    2.9,    3.5,  19.7,  21.3,   26.0
2021, 09, 13, 12,   32.9, 101.42,     39,    2.1,    2.1,    2.4,  14.9,  16.6,   20.2
2021, 09, 13, 13,   32.5, 101.39,     38,    2.0,    1.9,    2.1,  13.2,  14.7,   17.8
2021, 09, 13, 14,   32.6, 101.35,     38,    2.0,    1.9,    2.2,  13.2,  14.7,   17.7
2021, 09, 13, 15,   30.6, 101.28,     41,    1.9,    1.8,    2.1,  13.0,  13.9,   17.1
2021, 09, 13, 16,   28.3, 101.25,     47,    2.2,    2.1,    2.5,  14.8,  15.6,   18.9
2021, 09, 13, 17,   26.6, 101.28,     52,    2.2,    2.0,    2.4,  14.2,  14.5,   17.4
2021, 09, 13, 18,   24.1, 101.29,     60,    2.4,    2.3,    2.7,  15.6,  15.7,   19.0
2021, 09, 13, 19,   21.8, 101.31,     69,    2.9,    2.7,    3.4,  17.5,  17.6,   21.0
2021, 09, 13, 20,   20.8, 101.36,     73,    3.2,    3.1,    4.0,  19.8,  20.1,   24.2
2021, 09, 13, 21,   20.2, 101.36,     75,    3.4,    3.4,    4.5,  19.9,  20.5,   24.9
2021, 09, 13, 22,   19.7, 101.35,     77,    3.6,    3.6,    4.8,  19.4,  20.1,   24.6
2021, 09, 13, 23,   19.2, 101.32,     79,    4.1,    4.2,    5.4,  20.7,  21.3,   25.9
2021, 09, 14, 12,   21.0, 101.09,     82,    2.0,    2.1,    2.4,  12.4,  14.8,   19.0
2021, 09, 14, 13,   20.1, 101.05,     84,    3.3,    3.4,    4.1,  20.4,  23.9,   30.0
2021, 09, 14, 14,   20.6, 101.02,     84,    4.5,    4.6,    5.6,  27.1,  31.6,   39.8
2021, 09, 14, 15,   21.5, 101.00,     79,    3.5,    3.4,    3.7,  29.0,  33.6,   41.5
2021, 09, 14, 16,   21.2, 101.01,     80,    3.6,    3.4,    3.9,  27.2,  31.1,   38.5
2021, 09, 14, 17,   21.2, 101.00,     76,    2.4,    2.1,    2.2,  21.3,  24.1,   29.8
2021, 09, 14, 18,   20.8, 101.01,     77,    2.4,    2.1,    2.2,  20.1,  22.6,   27.7
2021, 09, 14, 19,   20.7, 101.07,     75,    1.9,    1.5,    1.4,  16.9,  18.1,   22.1
2021, 09, 14, 20,   20.9, 101.11,     70,    0.9,    0.5,    0.1,  11.1,  11.4,   13.8
2021, 09, 14, 21,   21.2, 101.12,     68,    0.6,    0.2,   -0.3,   9.9,  10.3,   12.2
2021, 09, 14, 22,   21.4, 101.13,     67,    0.7,    0.2,   -0.3,  10.5,  11.1,   13.3
2021, 09, 14, 23,   21.4, 101.15,     66,    0.7,    0.3,   -0.2,  11.3,  12.8,   15.6
2021, 09, 15, 00,   21.4, 101.14,     65,    0.7,    0.2,   -0.3,  11.3,  12.9,   16.0
2021, 09, 15, 01,   21.2, 101.14,     65,    0.6,    0.2,   -0.4,  10.7,  11.7,   14.1
2021, 09, 15, 02,   21.2, 101.10,     66,    0.7,    0.3,   -0.3,  10.9,  11.8,   14.0
2021, 09, 15, 03,   21.0, 101.10,     64,    0.4,   -0.0,   -0.6,   9.7,  10.2,   11.9
2021, 09, 15, 04,   20.3, 101.10,     63,    0.0,   -0.4,   -1.0,   7.1,   7.1,    8.1
2021, 09, 15, 05,   19.8, 101.12,     65,    0.1,   -0.3,   -0.8,   7.3,   7.4,    8.5
2021, 09, 15, 06,   18.8, 101.17,     71,    0.6,    0.2,   -0.1,   9.5,   9.8,   11.4
2021, 09, 15, 07,   21.4, 101.22,     64,    0.5,    0.1,   -0.4,  10.3,  11.0,   13.1
2021, 09, 15, 08,   25.2, 101.26,     54,    0.4,    0.0,   -0.6,  11.3,  13.0,   15.5
2021, 09, 15, 09,   27.7, 101.26,     47,    0.4,    0.0,   -0.7,  12.6,  14.8,   17.6
2021, 09, 15, 10,   29.5, 101.27,     42,    0.4,    0.0,   -0.7,  12.9,  15.6,   18.8
2021, 09, 15, 11,   30.6, 101.24,     39,    0.4,    0.1,   -0.7,  13.0,  15.9,   19.3
2021, 09, 15, 12,   30.6, 101.18,     38,    2.5,    2.6,    3.1,  18.4,  22.1,   28.0
2021, 09, 15, 13,   32.1, 101.16,     35,    2.4,    2.5,    3.0,  18.4,  22.2,   28.1
2021, 09, 15, 14,   32.5, 101.11,     33,    2.5,    2.6,    3.1,  18.3,  22.2,   28.0
2021, 09, 15, 15,   30.3, 101.09,     37,    2.4,    2.4,    2.8,  17.0,  20.3,   25.5
2021, 09, 15, 16,   28.1, 101.12,     42,    2.5,    2.4,    2.9,  17.4,  20.5,   25.8
2021, 09, 15, 17,   25.2, 101.12,     51,    2.8,    2.8,    3.4,  19.7,  22.5,   28.2
2021, 09, 15, 18,   22.3, 101.14,     57,    2.7,    2.7,    3.3,  19.4,  21.7,   27.0
2021, 09, 15, 19,   20.8, 101.18,     62,    2.8,    2.7,    3.4,  19.8,  21.5,   26.7
2021, 09, 15, 20,   20.3, 101.24,     62,    2.4,    2.5,    3.1,  17.2,  18.9,   23.6
2021, 09, 15, 21,   19.5, 101.26,     66,    2.8,    2.7,    3.6,  19.1,  21.0,   26.4
2021, 09, 15, 22,   19.5, 101.23,     67,    2.8,    2.8,    3.6,  19.2,  21.0,   26.6
2021, 09, 15, 23,   18.6, 101.20,     70,    3.0,    3.0,    3.9,  20.1,  21.9,   27.4
2021, 09, 16, 00,   17.6, 101.15,     74,    3.3,    3.3,    4.4,  21.2,  23.3,   29.4
2021, 09, 16, 01,   17.5, 101.10,     75,    3.2,    3.3,    4.4,  20.4,  22.5,   28.5
2021, 09, 16, 02,   18.0, 101.03,     73,    3.1,    3.1,    4.2,  19.5,  21.4,   27.1
2021, 09, 16, 03,   17.6, 101.00,     75,    3.2,    3.3,    4.4,  20.1,  22.2,   28.0
2021, 09, 16, 04,   16.6, 100.99,     79,    3.9,    4.0,    5.5,  22.5,  24.8,   31.3
2021, 09, 16, 05,   16.1, 100.98,     82,    4.6,    4.9,    6.8,  25.5,  28.3,   36.0
2021, 09, 16, 06,   16.3, 101.01,     83,    5.1,    5.6,    7.6,  26.7,  29.5,   37.4
2021, 09, 16, 07,   21.3, 101.01,     70,    3.1,    3.3,    4.5,  18.3,  20.1,   25.5
2021, 09, 16, 08,   29.3, 101.01,     48,    1.7,    1.9,    2.3,  11.9,  13.3,   16.4
2021, 09, 16, 09,   29.8, 101.01,     45,    1.6,    1.6,    1.9,  10.7,  11.6,   13.9
2021, 09, 16, 10,   28.6, 100.96,     47,    1.6,    1.6,    1.8,  10.5,  11.2,   13.7
2021, 09, 16, 11,   30.7, 100.92,     43,    1.5,    1.5,    1.7,   9.7,  10.4,   12.7
2021, 09, 16, 12,   27.5, 100.87,     49,    1.8,    1.6,    1.8,  11.1,  11.9,   14.1
2021, 09, 16, 13,   26.3, 100.83,     54,    2.1,    2.0,    2.3,  12.9,  13.9,   16.7
2021, 09, 16, 14,   25.1, 100.74,     59,    2.3,    2.3,    2.7,  15.0,  15.9,   19.3
2021, 09, 16, 15,   25.5, 100.70,     58,    2.3,    2.3,    2.7,  15.1,  16.0,   19.1
2021, 09, 16, 16,   25.3, 100.72,     58,    2.3,    2.2,    2.6,  14.6,  15.0,   17.8
2021, 09, 16, 17,   24.6, 100.73,     56,    2.1,    2.0,    2.4,  12.7,  13.2,   15.7
2021, 09, 18, 12,   30.6, 100.92,     44,    3.0,    2.8,    3.2,  17.9,  23.2,   31.3
2021, 09, 18, 13,   33.0, 100.91,     38,    2.3,    2.3,    2.6,  13.8,  18.0,   23.9
2021, 09, 18, 14,   33.5, 100.91,     36,    3.1,    3.0,    3.4,  19.7,  26.6,   35.7
2021, 09, 18, 15,   31.2, 100.94,     40,    2.7,    2.6,    3.0,  18.3,  24.1,   32.1